Overview Statistics Trail Chart Weather Telemetry Raw packets
 

This is the latest recevied weather packets stored in our database for station/object N9BLE. If no packets are shown the sender has not sent any weather packets the latest 10 day(s).

<< 84 85 86 87 88 89 90 >>
Time Temp. Humidity Pressure Rain* Wind** Luminosity Snow
1777422113 15.56° C 64% 1016.6 hPa 0 mm - 14 W/m² -
1777421813 15.56° C 64% 1016.5 hPa 0 mm - 19 W/m² -
1777421508 15.56° C 63% 1016.6 hPa 0 mm - 26 W/m² -
1777421204 15.56° C 63% 1016.7 hPa 0 mm - 32 W/m² -
1777420901 15.56° C 64% 1016.6 hPa 0 mm - 34 W/m² -
1777420598 16.11° C 62% 1016.6 hPa 0 mm - 33 W/m² -
1777420294 16.11° C 61% 1016.5 hPa 0 mm - 35 W/m² -
1777419989 16.11° C 61% 1016.5 hPa 0 mm - 37 W/m² -
1777419686 16.11° C 60% 1016.7 hPa 0 mm - 42 W/m² -
1777419384 16.11° C 61% 1016.7 hPa 0 mm - 47 W/m² -
1777419084 16.11° C 60% 1016.9 hPa 0 mm - 55 W/m² -
1777418783 16.67° C 60% 1016.8 hPa 0 mm - 66 W/m² -
1777418480 16.67° C 60% 1016.7 hPa 0 mm - 83 W/m² -
1777418176 16.11° C 61% 1016.8 hPa 0 mm - 91 W/m² -
1777417872 16.11° C 58% 1016.8 hPa 0 mm - 91 W/m² -
1777417568 16.11° C 59% 1016.8 hPa 0 mm - 91 W/m² -
1777417264 16.11° C 59% 1016.7 hPa 0 mm - 97 W/m² -
1777416961 16.11° C 58% 1016.5 hPa 0 mm - 87 W/m² -
1777416661 16.11° C 58% 1016.6 hPa 0 mm - 111 W/m² -
1777416357 17.22° C 56% 1016.5 hPa 0 mm - 81 W/m² -
1777416056 16.67° C 58% 1016.4 hPa 0 mm - 132 W/m² -
1777415752 16.67° C 58% 1016.3 hPa 0 mm - 102 W/m² -
1777415449 16.67° C 58% 1016.3 hPa 0 mm - 85 W/m² -
1777415144 17.22° C 59% 1016.3 hPa 0 mm - 266 W/m² -
1777414839 17.22° C 60% 1016.3 hPa 0 mm - 277 W/m² -

* Rain latest hour (hover to see other rain measurements)
** Current wind speed in m/s (hover to see current wind gust speed)